When you browse on this site, cookies collect data to enhance your experience and personalize the content and advertising you see.
Visit our Privacy Policy to learn more. By continuing to use the site, you agree to this use of cookies and data.
  • In Hungary
  • List of Countries
  • For 7 days
  • Water Temperature
  • Satellite Maps
  • Weather Map
  • News
  • Weather Widgets
  • user-avatar
    Login

    Hourly Weather Masvingo

    Today, 18 January, Friday

    Time Temperature Precipitation Wind Pressure Humidity
    00:00 +21°C° 0 mm 0 mps 669 mmHg 83%
    01:00 +21°C° 0 mm 0 mps 669 mmHg 85%
    02:00 +20°C° 0 mm 0 mps 669 mmHg 86%
    03:00 +20°C° 0 mm 0 mps 669 mmHg 88%
    04:00 +19°C° 0 mm 0 mps 668 mmHg 90%
    05:00 +21°C° 0 mm 1 mps 668 mmHg 92%
    06:00 +22°C° 0 mm 1 mps 669 mmHg 87%
    07:00 +23°C° 0 mm 2 mps 669 mmHg 83%
    08:00 +25°C° 0 mm 2 mps 670 mmHg 77%
    09:00 +26°C° 0 mm 2 mps 670 mmHg 72%
    10:00 +27°C° 0 mm 2 mps 670 mmHg 67%
    11:00 +28°C° 0 mm 2 mps 670 mmHg 62%
    12:00 +29°C° 0 mm 3 mps 670 mmHg 57%
    13:00 +31°C° 0 mm 3 mps 669 mmHg 52%
    14:00 +33°C° 0 mm 4 mps 669 mmHg 47%
    15:00 +32°C° 0 mm 4 mps 668 mmHg 48%
    16:00 +32°C° 0 mm 4 mps 668 mmHg 50%
    17:00 +30°C° 0 mm 4 mps 667 mmHg 51%
    18:00 +28°C° 0 mm 3 mps 667 mmHg 59%
    19:00 +27°C° 0 mm 2 mps 667 mmHg 66%
    20:00 +25°C° 0 mm 1 mps 668 mmHg 73%
    21:00 +24°C° 0 mm 1 mps 668 mmHg 75%
    22:00 +24°C° 0 mm 1 mps 668 mmHg 77%
    23:00 +23°C° 0 mm 1 mps 668 mmHg 78%

    Tomorrow, 19 January, Saturday

    Time Temperature Precipitation Wind Pressure Humidity
    00:00 +23°C° 0 mm 1 mps 668 mmHg 79%
    01:00 +23°C° 0 mm 1 mps 668 mmHg 80%
    02:00 +22°C° 0 mm 1 mps 667 mmHg 81%
    03:00 +22°C° 0 mm 1 mps 667 mmHg 82%
    04:00 +21°C° 0 mm 1 mps 667 mmHg 82%
    05:00 +21°C° 0 mm 1 mps 667 mmHg 83%
    06:00 +23°C° 0 mm 1 mps 668 mmHg 75%
    07:00 +23°C° 0 mm 0 mps 669 mmHg 67%
    08:00 +26°C° 0 mm 0 mps 669 mmHg 58%
    09:00 +30°C° 0 mm 1 mps 670 mmHg 51%
    10:00 +31°C° 0 mm 1 mps 670 mmHg 43%
    11:00 +34°C° 0 mm 2 mps 670 mmHg 36%
    12:00 +35°C° 0 mm 3 mps 670 mmHg 35%
    13:00 +35°C° 0 mm 4 mps 670 mmHg 35%
    14:00 +36°C° 0 mm 5 mps 669 mmHg 34%
    15:00 +35°C° 0 mm 5 mps 669 mmHg 38%
    16:00 +34°C° 0 mm 5 mps 669 mmHg 43%
    17:00 +33°C° 0 mm 5 mps 668 mmHg 47%
    18:00 +32°C° 0 mm 5 mps 669 mmHg 50%
    19:00 +29°C° 0 mm 5 mps 669 mmHg 54%
    20:00 +27°C° 0 mm 5 mps 669 mmHg 57%
    21:00 +26°C° 0 mm 5 mps 670 mmHg 66%
    22:00 +24°C° 0 mm 6 mps 670 mmHg 74%
    23:00 +23°C° 0 mm 7 mps 671 mmHg 82%

    Day after tomorrow, 20 January, Sunday

    Time Temperature Precipitation Wind Pressure Humidity
    00:00 +22°C° 0.4 mm 7 mps 671 mmHg 85%
    01:00 +21°C° 0.4 mm 7 mps 671 mmHg 87%
    02:00 +21°C° 0.4 mm 7 mps 671 mmHg 89%
    03:00 +20°C° 0.3 mm 6 mps 671 mmHg 90%
    04:00 +20°C° 0.3 mm 5 mps 672 mmHg 90%
    05:00 +20°C° 0.3 mm 5 mps 672 mmHg 90%
    06:00 +20°C° 0.4 mm 5 mps 672 mmHg 90%
    07:00 +19°C° 0.4 mm 5 mps 673 mmHg 91%
    08:00 +19°C° 0.4 mm 5 mps 673 mmHg 91%
    09:00 +19°C° 0.2 mm 5 mps 673 mmHg 90%
    10:00 +19°C° 0.2 mm 5 mps 673 mmHg 90%
    11:00 +19°C° 0.2 mm 5 mps 674 mmHg 89%
    12:00 +19°C° 0.1 mm 5 mps 673 mmHg 88%
    13:00 +19°C° 0.1 mm 5 mps 673 mmHg 87%
    14:00 +19°C° 0.1 mm 5 mps 673 mmHg 87%
    15:00 +19°C° 0.1 mm 5 mps 672 mmHg 87%
    16:00 +19°C° 0.1 mm 5 mps 672 mmHg 87%
    17:00 +19°C° 0.1 mm 5 mps 672 mmHg 87%
    18:00 +17°C° 0 mm 5 mps 673 mmHg 87%
    19:00 +18°C° 0 mm 4 mps 673 mmHg 87%
    20:00 +18°C° 0 mm 4 mps 673 mmHg 87%
    21:00 +18°C° 0 mm 4 mps 674 mmHg 87%
    22:00 +18°C° 0 mm 4 mps 674 mmHg 86%
    23:00 +18°C° 0 mm 4 mps 674 mmHg 86%

    21 January, Monday

    Time Temperature Precipitation Wind Pressure Humidity
    00:00 +17°C° 0 mm 4 mps 674 mmHg 86%
    01:00 +17°C° 0 mm 4 mps 673 mmHg 86%
    02:00 +15°C° 0 mm 4 mps 673 mmHg 86%
    03:00 +15°C° 0.1 mm 4 mps 673 mmHg 87%
    04:00 +15°C° 0.1 mm 4 mps 673 mmHg 88%
    05:00 +15°C° 0.1 mm 4 mps 673 mmHg 90%
    06:00 +16°C° 0.1 mm 3 mps 673 mmHg 89%
    07:00 +16°C° 0.1 mm 3 mps 674 mmHg 88%
    08:00 +16°C° 0.1 mm 3 mps 674 mmHg 88%
    09:00 +17°C° 0.1 mm 3 mps 674 mmHg 84%
    10:00 +17°C° 0.1 mm 3 mps 674 mmHg 80%
    11:00 +18°C° 0.1 mm 3 mps 674 mmHg 76%
    12:00 +19°C° 0.1 mm 3 mps 673 mmHg 73%
    13:00 +19°C° 0.1 mm 3 mps 673 mmHg 71%
    14:00 +20°C° 0.1 mm 3 mps 672 mmHg 68%
    15:00 +20°C° 0 mm 3 mps 672 mmHg 68%
    16:00 +20°C° 0 mm 3 mps 672 mmHg 67%
    17:00 +21°C° 0 mm 3 mps 671 mmHg 67%
    18:00 +19°C° 0 mm 2 mps 671 mmHg 72%
    19:00 +19°C° 0 mm 1 mps 671 mmHg 78%
    20:00 +18°C° 0 mm 1 mps 671 mmHg 84%
    21:00 +16°C° 0 mm 0 mps 671 mmHg 85%
    22:00 +16°C° 0 mm 0 mps 671 mmHg 85%
    23:00 +15°C° 0 mm 0 mps 671 mmHg 86%

    22 January, Tuesday

    Time Temperature Precipitation Wind Pressure Humidity
    00:00 +15°C° 0 mm 0 mps 671 mmHg 87%
    01:00 +15°C° 0 mm 0 mps 670 mmHg 88%
    02:00 +15°C° 0 mm 0 mps 670 mmHg 89%
    03:00 +16°C° 0 mm 1 mps 670 mmHg 90%
    04:00 +16°C° 0 mm 1 mps 670 mmHg 90%
    05:00 +16°C° 0 mm 1 mps 670 mmHg 90%
    06:00 +18°C° 0 mm 1 mps 670 mmHg 85%
    07:00 +19°C° 0 mm 1 mps 671 mmHg 80%
    08:00 +19°C° 0 mm 2 mps 671 mmHg 75%
    09:00 +21°C° 0 mm 2 mps 671 mmHg 71%
    10:00 +22°C° 0 mm 3 mps 671 mmHg 67%
    11:00 +25°C° 0 mm 4 mps 672 mmHg 63%
    12:00 +24°C° 0.3 mm 3 mps 671 mmHg 67%
    13:00 +22°C° 0.3 mm 3 mps 670 mmHg 71%
    14:00 +22°C° 0.3 mm 3 mps 670 mmHg 75%
    15:00 +21°C° 0.9 mm 2 mps 669 mmHg 80%
    16:00 +20°C° 0.9 mm 2 mps 669 mmHg 84%
    17:00 +20°C° 0.9 mm 1 mps 669 mmHg 89%
    18:00 +20°C° 0.2 mm 1 mps 669 mmHg 89%
    19:00 +20°C° 0.2 mm 1 mps 669 mmHg 89%
    20:00 +20°C° 0.2 mm 1 mps 670 mmHg 89%
    21:00 +20°C° 0 mm 1 mps 670 mmHg 91%
    22:00 +19°C° 0 mm 1 mps 670 mmHg 93%
    23:00 +19°C° 0 mm 1 mps 669 mmHg 95%

    23 January, Wednesday

    Time Temperature Precipitation Wind Pressure Humidity
    00:00 +19°C° 0 mm 1 mps 669 mmHg 96%
    01:00 +19°C° 0 mm 1 mps 669 mmHg 97%
    02:00 +19°C° 0 mm 1 mps 668 mmHg 97%
    03:00 +19°C° 0.4 mm 1 mps 668 mmHg 97%
    04:00 +19°C° 0.4 mm 1 mps 668 mmHg 97%
    05:00 +20°C° 0.4 mm 1 mps 669 mmHg 97%
    06:00 +20°C° 0.8 mm 1 mps 669 mmHg 96%
    07:00 +20°C° 0.8 mm 1 mps 669 mmHg 96%
    08:00 +20°C° 0.8 mm 1 mps 669 mmHg 96%
    09:00 +20°C° 1.4 mm 1 mps 669 mmHg 96%
    10:00 +20°C° 1.4 mm 1 mps 669 mmHg 97%
    11:00 +21°C° 1.4 mm 1 mps 669 mmHg 97%
    12:00 +21°C° 0.5 mm 1 mps 668 mmHg 96%
    13:00 +21°C° 0.5 mm 1 mps 668 mmHg 95%
    14:00 +20°C° 0.5 mm 2 mps 667 mmHg 95%
    15:00 +21°C° 0 mm 2 mps 667 mmHg 92%
    16:00 +22°C° 0 mm 1 mps 667 mmHg 90%
    17:00 +23°C° 0 mm 1 mps 667 mmHg 87%
    18:00 +22°C° 0 mm 1 mps 667 mmHg 90%
    19:00 +22°C° 0 mm 1 mps 667 mmHg 92%
    20:00 +19°C° 0 mm 0 mps 668 mmHg 95%
    21:00 +19°C° 0 mm 0 mps 668 mmHg 95%
    22:00 +19°C° 0 mm 0 mps 668 mmHg 95%
    23:00 +19°C° 0 mm 0 mps 668 mmHg 95%
    Show more